カタログに戻る

STARLINK-32342

運用中通信VLEO
NORAD 61217·PAYLOAD·🇺🇸 United States

打ち上げ Sep 20, 2024 から Vandenberg Space Force Base

Loading…

次のパス (今後24時間)

TLE

最新Source: CelesTrak SupGP

元期: Sep 15, 2026, 03:19 UTC

1 61217C 24171T   26258.13868056  .00057029  00000+0  18343-2 0  2583
2 61217  53.1573 161.4895 0001386  67.3288  85.7942 15.31666207    12

AllMySatでSTARLINK-32342をリアルタイム追跡

Download on the App Store